Tracking 32991 objects as of 22-Jan-2026
HD Live streaming from Space Station
objects crossing your sky now

QIANFAN-99

Track QIANFAN-99 now!
10-day predictions
QIANFAN-99 is classified as:


NORAD ID: 66041
Int'l Code: 2025-233J
Perigee: 1,074.4 km
Apogee: 1,077.1 km
Inclination: 89.0 °
Period: 106.6 minutes
Semi major axis: 7446 km
RCS: Unknown
Launch date: October 17, 2025
Source: People's Republic of China (PRC)
Launch site: Taiyaun Space Center, China (TSC)
Your satellite tracking list
Your tracking list is empty




NASA's NSSDC Master Catalog

Two Line Element Set (TLE):
1 66041U 25233J   26022.41015318  .00000066  00000-0  84166-4 0  9998
2 66041  88.9921  57.9575 0001852 103.0154 257.1204 13.50992364 13506
Source of the keplerian elements: AFSPC